DIAMANT R/B, 2682

Orbit data source: Space-Track

DIAMANT R/B, 2682 is space debris in LEO originally from a launch on Wed, 15 Feb 1967 UTC launched from the Hamma Guira Space Track Range (HGSTR). Debris objects in space refer to the collection of defunct objects orbiting the Earth. Examples of debris include non-operational satellites, rocket bodies, and fragments generated from explosions, collisions, or faulty payload assembly.

Loading next visibility...
DIAMANT R/B details
Identifier
2682, 1967-014B
Orbit
LEO
Last TLE update13 hours ago
Origin
Flag of FRCNES (FR)
ManufacturerSud
MissionSpacecraft
Bus & MotorRUBIS, Unknown motor
Mass65 kg wet, 65 kg dry
Launch date (UTC)
1967-02-15 (58 years ago)
Launch vehicleUnknown
Launch site
Hamma Guira Space Track Range (HGSTR)
Object type
Payload
Rocket body
Debris
Shape & HBRCyl, 2.1 m
Radar Cross Section1.347 m², Large (>1 m²)

Expand to show TLE details & history

TLE from 13 hours ago
0 DIAMANT R/B
1  2682U 67014B   25023.22399892  .00002776  00000-0  11883-2 0  9997
2  2682  39.4630 347.0362 0748088 319.1465  35.5433 13.31239269795928
Epoch: 2025-01-23T05:22Z
Definitive object data (Epoch: 2025-01-23T05:22:33.506Z)
Latitude-0.00004°
Longitude143.59195°
Altitude699.465 km
Speed7.725 km/s
True Right ascension23h 08m 08s
True Declination0° 00' 00"
Sunlit
Object was in daylight at TLE epoch
Visualization TLE readout
Latitude37.21973°
Longitude-105.47895°
Altitude1,597.104 km
Speed6.859 km/s
Apparent Right ascension07h 03m 23s
Apparent Declination3° 46' 02"
Sunlit
Object is in full shadow
Visualization observer readout
Local Sidereal Time19:44:23
Azimuth14.626° NNE
Elevation-45.312°
Doppler factor1
Orbital elements
Apogee altitude1,707.179 km
Perigee altitude581.671 km
Semi-major axis7,522.562 km
Eccentricity0.0748088
Inclination39.463°
RAAN347.0362°
Arg. of periapsis319.1465°
True anomaly40.92752°
Mean anomaly35.5433°
Eccentric anomaly38.19356°
Mean motion3.32655 °/min
BSTAR0.0011883
Orbital period108.22 mins
Loading maneuver chart data...
Loading historical data...
Loading historical data...
Loading historical data...
Loading historical data...
Loading historical data...
Loading historical data...
Loading historical data...

DIAMANT R/B Visibility forecast

Observer location: undefined°, undefined

Span
Click to sort rows by Start time (UTC) header in descending order
Start Az.
Max El. time (UTC)
Max El. Az.
Max El.
End time (UTC)
End Az.
9 mins2025-01-23 23:32:29.154Z180.365° SSW2025-01-23 23:36:29.154Z136.247° SSE20.572°2025-01-23 23:41:29.154Z92.816° ESE
14 mins2025-01-24 01:24:29.154Z232.727° WSW2025-01-24 01:29:29.154Z170.793° S41.286°2025-01-24 01:38:29.154Z79.874° E
16 mins2025-01-24 03:18:29.154Z265.486° W2025-01-24 03:24:29.154Z234.496° WSW44.916°2025-01-24 03:34:29.154Z90.257° ESE
18 mins2025-01-24 05:12:29.154Z277.962° WNW2025-01-24 05:20:29.154Z177.535° S43.748°2025-01-24 05:30:29.154Z114.814° SE
17 mins2025-01-24 07:07:29.154Z273.595° WNW2025-01-24 07:15:29.154Z207.838° SW32.915°2025-01-24 07:24:29.154Z149.608° SSE
6 mins2025-01-24 09:06:29.154Z242.92° WSW2025-01-24 09:08:29.154Z231.128° WSW13.02°2025-01-24 09:12:29.154Z207.71° SW
|